Location: Bremen
(53.0793°N, 8.8017°E)
Time: 22:57:44
(UTC+02:00)

Altair - Pass Details

Date: 18 April 2024
Orbit: 1501 x 1682 km, 47.2° (Epoch: 19 May)

Event Time Altitude Azimuth Distance (km) Brightness Sun altitude
Rises 20:17:35 0° 212° (SSW) 4,912 10.4 1.1°
Reaches altitude 10° 20:21:07 10° 204° (SSW) 3,913 9.7 0.6°
Maximum altitude 20:29:47 35° 144° (SE) 2,424 8.2 -0.7°
Drops below altitude 10° 20:38:12 10° 84° (E) 3,813 9.0 -1.8°
Sets 20:41:35 0° 76° (ENE) 4,773 9.6 -2.3°
